Theta_e
310 309 310 310 311 311 312 312 313 313 313 313 312 312 312 311 308 308 308 308 308 307 305 304 303 303 301 299 298 297 294 291 289 285 285 286 286 286 285 284 284 283 283
311 310 310 310 310 310 310 311 311 311 312 312 311 311 311 311 309 306 306 306 306 305 304 303 303 302 300 298 297 295 291 290 291 286 286 285 285 285 285 284 283 283 283
309 309 310 310 309 309 309 309 309 310 310 310 310 309 310 310 309 307 305 305 305 304 304 304 304 301 299 295 292 291 291 290 291 289 287 285 284 284 284 284 283 283 283
307 307 308 309 309 309 309 308 308 308 308 308 308 309 309 309 309 308 304 303 303 303 303 303 302 301 299 295 292 291 289 289 290 291 285 283 284 283 284 283 282 282 283
306 305 306 307 307 307 307 307 306 306 306 306 307 307 308 308 307 306 304 302 300 300 301 300 300 300 298 296 292 290 290 289 289 286 284 283 283 282 283 282 283 283 283
303 304 304 304 304 305 305 305 305 304 305 305 305 306 306 306 305 304 303 301 300 298 297 297 297 296 295 294 291 293 292 289 286 285 283 283 283 283 283 283 283 282 281
299 300 300 301 302 303 302 302 303 303 303 303 303 303 302 302 302 301 300 297 295 295 295 293 292 292 291 289 289 291 291 289 289 286 288 284 285 286 284 283 285 282 283
299 298 298 297 297 298 299 300 301 301 301 301 302 302 301 301 300 299 297 293 292 292 292 292 291 289 288 288 289 287 287 286 286 287 288 289 289 286 286 286 285 283 282
296 297 296 295 294 295 295 296 297 298 298 299 299 299 298 298 297 296 292 290 290 289 289 289 288 287 287 288 287 285 285 285 285 287 289 288 286 285 285 286 282 282 280
294 293 292 293 294 293 294 294 294 295 295 296 295 295 294 294 293 292 289 289 288 287 287 286 286 287 287 287 286 285 284 284 286 288 286 285 284 283 284 285 284 281 280
291 291 292 291 291 293 293 293 293 293 292 291 291 291 291 290 290 289 288 288 287 285 284 284 284 286 287 287 285 286 287 287 287 286 286 284 283 283 284 284 283 282 281
289 289 289 289 290 290 291 291 291 291 290 289 288 287 287 287 287 287 288 288 286 284 283 284 284 285 286 287 286 287 287 288 288 287 284 283 283 283 283 283 282 281 280
287 287 287 288 288 289 289 289 289 289 288 286 285 285 285 285 285 285 287 288 285 283 284 284 284 285 286 287 286 287 287 288 286 283 283 285 285 284 283 281 280 279 279
286 286 287 286 287 287 287 287 287 286 285 285 284 284 284 284 283 284 287 286 285 284 284 284 284 285 286 287 287 287 287 287 286 286 287 286 284 282 281 281 279 278 277
286 286 286 286 286 286 286 286 285 285 285 284 284 283 283 283 284 284 286 285 285 284 284 283 285 286 287 287 287 287 287 287 286 286 286 284 283 281 280 280 279 277 275
282 284 284 285 285 285 285 285 285 285 284 284 284 284 284 283 284 285 285 285 285 284 283 284 284 285 286 286 286 286 286 286 286 285 285 284 282 281 279 278 277 276 274
281 284 285 285 285 285 285 284 284 285 286 286 285 285 284 284 284 285 286 285 285 285 284 285 285 285 285 286 286 286 286 286 285 284 283 282 281 279 277 276 275 274 272
282 284 286 286 285 285 285 285 285 284 283 284 285 285 286 285 285 286 286 286 286 286 285 285 285 285 285 285 285 285 285 284 283 282 281 280 279 278 276 275 274 273 271
282 285 285 285 285 285 285 285 284 283 282 281 283 284 285 286 286 285 286 286 286 286 285 285 285 285 285 285 284 283 283 282 281 280 279 278 278 277 275 274 272 271 270
281 283 284 284 284 284 284 283 281 280 279 279 279 280 282 284 282 282 283 284 284 283 282 282 282 282 282 281 280 280 280 279 279 278 277 276 275 275 273 272 271 270 269
279 281 282 282 282 281 281 280 279 278 277 277 277 277 278 279 277 277 277 278 278 278 278 278 278 278 278 277 277 276 276 276 275 275 274 273 273 272 272 271 270 268 267
277 278 278 278 277 277 277 277 277 276 275 274 274 274 276 276 275 275 274 275 275 275 275 275 275 274 274 274 274 273 273 272 272 272 272 271 271 270 269 268 267 266 265
275 275 275 275 275 275 275 274 274 273 272 272 272 273 273 272 272 272 272 272 272 272 272 272 272 271 271 271 271 271 270 270 269 269 269 268 268 267 266 266 265 265 264
273 272 272 272 272 272 271 271 271 271 271 271 271 270 270 270 270 269 269 269 268 268 268 268 268 268 268 268 267 267 267 267 266 266 266 265 265 265 265 264 264 264 263
270 270 270 269 269 269 268 268 267 267 267 267 266 266 266 266 266 265 265 266 266 266 266 266 266 266 266 265 265 265 265 265 265 265 265 264 264 264 263 263 263 263 262
267 267 267 267 266 266 266 266 266 266 266 265 265 265 265 265 265 265 265 265 265 265 265 264 265 265 265 265 264 264 264 264 264 264 263 263 263 263 262 262 262 262 261
Wind_Speed
13 16 19 23 25 28 33 36 38 38 38 37 37 36 38 38 36 39 40 37 43 42 43 43 44 43 41 40 41 40 37 29 8 9 22 26 24 43 38 34 27 25 20
14 15 18 20 23 27 33 35 37 37 38 38 37 37 38 39 38 37 38 39 41 41 42 42 43 41 41 39 38 38 33 32 21 11 17 26 24 36 37 32 28 25 20
21 20 22 24 25 28 31 32 34 34 36 36 37 37 37 38 38 38 37 39 42 42 40 44 44 41 40 35 34 31 31 30 25 19 14 24 24 30 33 29 27 23 21
26 26 26 28 30 32 32 32 32 32 33 34 36 38 38 38 39 38 37 38 41 44 43 44 43 43 42 40 34 32 31 29 24 20 22 22 23 26 30 29 25 24 19
25 25 29 32 33 33 33 32 31 31 33 32 34 36 37 38 37 37 36 35 38 40 41 42 42 44 41 41 35 33 34 29 28 25 19 15 18 21 27 26 25 17 20
27 28 28 28 30 31 31 30 30 30 30 30 32 34 35 37 36 35 35 35 37 37 37 39 38 37 37 39 32 35 39 39 31 24 17 17 21 25 26 24 20 15 7
26 26 27 27 28 29 29 29 28 28 27 29 30 31 34 34 33 33 33 34 35 35 33 31 32 33 31 29 29 31 33 33 36 37 32 28 26 30 28 23 22 21 15
28 26 24 25 27 27 26 25 26 25 26 26 29 30 32 32 30 29 29 31 32 32 32 32 31 30 31 31 30 30 32 30 29 28 30 32 26 27 25 27 21 18 16
32 28 26 25 27 27 27 27 25 25 23 24 26 26 28 28 26 25 24 26 30 29 28 28 28 29 30 31 33 31 28 28 26 27 26 21 22 20 24 18 19 17 11
32 32 30 27 23 23 22 23 23 23 22 20 21 21 21 21 21 23 21 25 25 24 24 25 28 27 27 31 34 30 27 26 29 22 19 20 19 22 19 18 20 19 10
30 32 29 26 25 20 19 17 16 16 18 16 17 15 16 17 17 18 18 23 23 21 21 22 25 23 27 31 32 36 35 35 31 25 21 20 23 20 19 20 18 18 18
27 27 28 25 22 19 19 16 11 9 10 12 12 14 13 14 13 14 17 21 18 19 18 21 23 23 24 31 31 34 30 31 26 20 22 25 22 23 23 23 20 18 19
24 24 24 23 21 18 16 14 12 9 6 10 10 9 13 11 10 10 12 18 15 15 17 17 19 20 22 27 29 30 24 21 23 22 20 13 15 17 17 19 17 17 16
21 20 19 18 18 15 13 11 10 11 11 8 8 9 9 9 8 9 9 17 11 11 12 13 17 21 24 25 27 27 23 18 16 13 7 11 12 14 17 19 22 20 17
18 18 17 15 14 13 11 9 10 11 10 10 10 10 9 8 9 8 11 18 13 12 11 14 17 19 22 22 21 19 15 13 13 12 12 16 17 19 20 22 24 23 18
21 16 13 13 12 10 9 7 4 5 5 5 5 4 5 7 8 7 11 13 10 11 14 14 14 16 12 15 17 17 17 18 20 17 17 21 23 24 24 24 25 23 22
21 22 18 14 12 10 8 6 4 2 2 2 1 3 0 1 7 10 11 12 13 15 13 14 13 15 15 17 18 20 22 20 19 18 19 21 21 22 24 26 25 21 19
21 21 18 15 13 10 10 7 7 3 4 7 10 10 2 4 8 8 10 11 12 15 13 14 13 15 17 18 19 20 20 18 17 17 18 19 19 20 20 21 22 21 19
16 15 14 12 11 9 8 8 4 6 6 7 7 8 11 11 7 7 7 5 7 5 7 12 13 12 13 14 15 14 14 13 13 14 17 17 16 17 18 19 18 18 17
7 7 6 6 6 5 8 8 8 10 12 14 17 14 9 6 13 12 8 5 4 3 2 2 3 3 4 4 5 8 9 10 10 12 13 14 15 16 17 17 17 17 18
6 8 10 11 10 10 12 13 12 14 14 16 19 16 13 14 13 13 13 13 11 8 6 4 3 1 2 3 4 5 6 8 9 10 11 12 14 16 16 16 16 16 16
8 11 14 15 14 13 14 14 14 14 13 13 12 12 11 13 12 12 12 11 9 7 6 4 3 2 2 2 3 4 6 7 7 9 11 12 14 15 15 16 16 16 17
10 13 15 16 16 16 16 15 14 14 13 12 11 11 11 11 10 9 8 7 5 4 3 3 3 3 4 5 6 7 8 8 9 11 12 12 14 15 15 17 17 17 17
12 14 15 16 16 16 16 16 15 14 13 12 11 10 8 8 7 6 4 4 3 2 3 4 4 5 6 7 8 9 9 10 11 11 11 12 12 12 14 16 17 18 18
14 15 17 16 15 15 14 14 13 11 10 9 8 6 5 4 4 3 3 4 4 4 5 6 6 7 8 9 9 9 9 11 11 11 12 12 12 13 15 18 18 19 18
14 15 15 14 13 11 11 10 9 7 6 4 3 3 3 3 4 5 5 6 7 7 8 9 9 10 11 12 12 12 13 13 13 13 13 13 15 16 17 17 17 18 18
Wind_Direction
275 266 261 259 257 256 255 257 257 258 258 257 255 252 251 249 247 238 237 238 235 230 229 228 230 230 231 231 227 222 217 208 175 185 209 213 215 217 217 218 220 223 228
295 274 267 263 256 254 254 257 259 259 260 259 257 252 249 248 247 244 238 239 238 231 230 228 231 233 229 227 225 215 206 209 208 173 199 206 214 213 216 213 217 224 230
294 280 270 264 264 263 264 264 263 261 259 259 258 255 251 249 250 252 251 243 238 236 234 233 235 228 230 223 217 207 204 205 210 194 191 206 204 207 203 211 216 224 232
304 290 278 275 273 273 275 274 274 269 261 258 258 257 254 251 249 250 250 246 242 241 240 241 239 237 233 223 212 205 194 194 200 203 201 187 192 196 200 199 211 223 229
332 312 295 290 286 284 283 282 282 275 268 263 259 255 252 250 251 250 249 249 246 244 243 245 244 245 239 232 210 199 197 186 189 186 183 175 178 174 192 205 215 216 235
328 320 314 305 295 289 286 286 286 281 272 266 259 254 252 251 253 253 253 252 251 246 243 246 245 242 237 234 212 217 200 188 182 186 183 172 185 192 199 202 198 205 221
324 321 315 307 300 296 293 287 281 280 277 268 261 257 255 254 256 260 261 257 253 251 246 241 239 238 229 213 212 212 202 194 200 197 192 188 191 202 200 194 203 205 217
323 325 325 321 314 309 301 292 286 281 276 269 263 259 257 256 258 261 263 254 250 250 247 245 239 229 220 210 200 187 194 193 201 203 201 206 211 200 211 213 210 217 234
323 322 323 323 318 316 311 305 300 291 279 271 267 264 259 259 261 263 257 244 246 244 245 238 232 225 219 214 191 182 181 187 196 199 198 199 202 205 204 210 203 200 223
320 318 318 315 312 312 311 310 308 299 290 282 272 264 261 261 261 264 252 238 232 232 230 231 230 225 214 202 185 179 179 186 193 198 193 199 184 195 217 235 226 206 202
314 313 313 314 310 307 302 301 304 305 297 290 279 267 263 263 262 258 243 228 225 216 210 208 212 218 217 195 189 191 193 197 204 200 192 194 202 220 222 221 221 224 231
313 311 312 311 309 310 304 301 295 289 292 289 285 282 273 268 261 252 237 216 216 214 204 212 223 215 211 189 191 198 198 206 195 199 200 201 209 222 227 220 223 236 242
314 314 314 312 310 307 301 301 293 281 264 262 264 274 286 279 265 249 235 206 191 204 224 224 224 208 196 191 198 202 194 186 185 187 196 213 239 242 235 220 219 220 224
310 313 312 308 307 303 296 286 279 276 265 262 264 267 271 267 248 231 231 180 188 213 222 212 204 193 189 188 197 205 195 194 195 202 231 250 246 223 212 212 211 212 217
306 306 302 299 293 295 288 286 288 284 275 279 273 255 241 238 235 227 199 176 193 207 202 187 181 174 172 174 184 192 206 212 225 229 236 238 226 218 215 215 214 211 214
300 291 284 284 279 277 275 286 281 295 275 280 296 278 263 250 211 189 185 185 197 183 178 168 166 184 180 198 226 241 250 240 229 236 244 236 221 213 213 208 211 215 222
290 290 283 270 264 261 261 257 288 349 299 291 34 48 326 204 160 176 186 183 182 177 173 172 170 175 188 197 211 227 236 243 246 256 251 232 226 219 213 211 211 218 227
288 277 268 258 249 243 245 227 168 106 58 52 68 61 9 94 148 164 182 179 185 182 187 184 186 193 205 216 228 237 240 246 258 257 243 233 223 219 211 217 221 226 230
286 264 247 243 239 225 220 199 177 119 81 59 59 69 77 103 120 158 170 180 177 136 179 196 209 220 224 233 241 246 249 250 249 243 235 227 224 224 224 227 229 231 230
254 222 200 180 182 196 177 152 126 103 90 72 53 38 40 84 79 79 91 115 124 107 97 138 159 189 203 213 250 260 253 249 246 240 237 236 237 233 231 230 227 227 231
199 160 149 135 129 130 130 123 114 106 96 80 67 53 60 82 80 79 78 78 77 71 64 53 35 323 276 272 265 259 255 253 250 246 244 243 240 237 239 239 243 242 242
147 132 124 120 122 116 109 110 108 104 96 83 70 66 68 80 78 74 73 72 69 64 56 45 34 13 331 305 291 277 264 262 262 259 255 252 249 246 243 241 239 237 235
127 118 116 114 114 113 108 106 105 103 99 90 84 79 74 74 73 69 66 58 50 40 23 357 342 319 307 300 290 281 278 276 268 260 261 260 257 250 244 242 241 240 239
118 118 114 108 108 106 105 103 102 103 102 98 93 88 83 78 74 68 60 51 33 9 340 319 303 292 283 280 279 277 275 272 269 265 261 260 259 256 252 249 247 248 248
100 102 100 100 101 102 104 102 100 98 95 91 89 86 85 80 66 44 21 9 352 340 328 315 307 300 296 291 286 280 273 269 265 262 260 255 251 250 250 251 250 250 248
85 87 89 94 93 93 94 94 91 87 81 72 59 35 15 4 348 336 327 317 310 309 302 298 295 292 288 287 285 282 279 275 272 268 263 258 254 252 251 251 251 251 250